Location: Eagan
(44.8336°N, 93.1671°W)
Time: 00:51:29
(UTC+00:00)

ARIANE 6 FM1 Upper Stage - Visible Passes

Search period start: 13 October 2024 00:00
Search period end: 23 October 2024 00:00
Orbit: 563 x 595 km, 62.0° (Epoch: 12 October)

Date Brightness Start Highest point End Pass type
(mag) Time Alt. Az. Time Alt. Az. Time Alt. Az.
13 Oct 5.2 00:47:18 10° N 00:48:05 10° NNE 00:48:51 10° NNE visible
13 Oct 5.2 02:24:49 10° NNW 02:26:02 17° NNW 02:26:02 17° NNW visible
14 Oct 4.9 00:50:52 10° N 00:52:47 13° NNE 00:53:56 12° NE visible
14 Oct 5.2 02:28:59 10° NNW 02:30:13 18° NNW 02:30:13 18° NNW visible
15 Oct 4.7 00:54:46 10° N 00:57:25 16° NNE 00:58:08 15° NE visible
15 Oct 5.2 02:33:11 10° NW 02:34:25 18° NNW 02:34:25 18° NNW visible
16 Oct 4.4 00:58:45 10° NNW 01:01:59 20° NNE 01:02:22 20° NE visible
16 Oct 5.3 02:37:26 10° NW 02:38:40 18° NW 02:38:40 18° NW visible
17 Oct 4.0 01:02:47 10° NNW 01:06:28 26° NE 01:06:39 26° NE visible
17 Oct 5.4 02:41:48 10° NW 02:42:57 18° NW 02:42:57 18° NW visible
18 Oct 3.5 01:06:51 10° NNW 01:10:53 36° NE 01:11:00 36° NE visible
18 Oct 5.6 02:46:15 10° WNW 02:47:17 16° WNW 02:47:17 16° WNW visible
19 Oct 2.9 01:10:58 10° NNW 01:15:14 52° NE 01:15:24 52° NE visible
19 Oct 5.8 02:50:56 10° WNW 02:51:43 13° WNW 02:51:43 13° WNW visible
20 Oct 2.6 01:15:07 10° NW 01:19:30 79° NE 01:19:55 70° ESE visible
20 Oct 6.0 02:56:04 10° W 02:56:13 10° W 02:56:13 10° W visible
20 Oct 4.2 23:40:32 10° NNW 23:43:58 22° NE 23:47:26 10° E visible
21 Oct 3.0 01:19:21 10° NW 01:23:41 68° SW 01:24:33 52° S visible
21 Oct 3.7 23:44:31 10° NNW 23:48:22 30° NE 23:52:13 10° E visible
22 Oct 3.8 01:23:40 10° NW 01:27:48 42° WSW 01:29:20 30° S visible
22 Oct 3.2 23:48:32 10° NNW 23:52:41 42° NE 23:56:50 10° ESE visible
